CAPE
0 0 0 0 0 0 0 0 0 0 0 0 0 0 0 0 0 73 71 11 118 79 1 5 0 8 18 28 810 905 512 442 339 263 868 1009 1416 1441 1068 527 477 428 616 768 803 1011 984 2077 1839 2079 2392 2482 2638 2555 2280 2364 2468 2328 2155 2318 2232 2157 2163 2093 1938 1828 1446 1282 1371 1248 536 542 330 372 76 38 54 12 6 56 21 10 14 0 0 0
0 0 0 0 0 0 0 0 0 0 0 0 0 0 0 0 0 0 0 42 48 1 3 2 0 13 23 76 776 833 630 545 474 407 1088 765 1032 1089 1151 635 728 819 493 514 640 1150 1109 1117 2342 2228 2646 2722 2859 2564 2643 2446 2694 2497 2378 2454 2312 2256 2241 2108 2000 1863 1651 1517 1296 1129 867 363 270 121 116 30 58 22 0 18 3 0 0 0 0 0
0 0 0 0 0 0 0 0 0 0 0 0 0 0 0 0 0 0 0 0 0 0 0 0 0 0 0 16 600 749 661 627 523 438 529 1270 970 954 1426 925 999 990 990 553 725 954 1114 1354 2577 2598 2808 2862 2904 2707 2604 2682 2675 2392 2493 2469 2329 2314 2190 2044 2099 2042 1882 1681 1430 1045 772 381 296 107 112 61 57 24 5 0 0 0 0 0 0 0
0 0 0 0 0 0 0 0 0 0 0 0 0 0 0 0 0 0 0 0 0 0 0 0 0 0 17 176 934 884 880 888 731 482 374 463 915 1248 1024 742 886 1060 1128 918 1163 1050 1176 1279 1829 2330 2897 3030 2945 3026 2594 2573 2584 2531 2661 2506 2355 2423 2144 2157 2102 2037 1560 1514 1398 1255 1021 352 209 148 146 85 34 42 14 0 0 0 0 0 0 0
0 0 0 0 0 0 0 0 0 0 0 0 0 0 0 0 0 0 0 0 0 2 0 0 0 0 136 52 338 727 950 835 664 724 447 565 574 1070 1096 1002 959 1022 1227 1160 1383 1452 1588 1511 1778 2078 2898 2897 2869 2894 2620 2508 2572 2599 2554 2520 2389 2343 2079 2046 2037 1862 1836 1712 1438 1382 817 388 343 184 162 127 78 16 10 0 0 0 0 0 0 0
0 0 0 0 0 0 0 0 0 0 0 0 0 0 0 0 0 0 0 0 0 0 0 0 0 0 0 23 28 1444 1017 566 815 766 645 758 785 770 1069 1282 1452 1684 1236 1319 1229 1698 1712 1943 1806 2326 2715 2740 2753 2777 2731 2290 2535 2446 2319 2375 2514 2460 2235 1910 1820 1918 1801 1662 1527 1487 1112 855 447 329 107 442 246 4 34 0 0 0 0 0 0 0
0 0 0 0 0 0 0 0 0 0 0 0 0 0 0 0 0 0 0 0 0 0 2 0 0 0 0 0 95 862 1371 1374 1138 1091 1262 1168 1308 531 1022 1359 1472 1673 1585 1374 921 1247 2057 1984 1496 2435 3003 3093 2927 2822 2704 2706 2670 2458 2588 2595 2448 2447 2392 2151 2152 1916 1844 1561 1377 1032 764 538 403 289 553 368 232 91 13 0 0 0 0 0 0 0
0 0 0 0 0 0 0 0 0 0 0 0 0 0 0 0 0 0 0 0 0 0 0 0 0 0 0 0 0 466 235 575 1615 1560 1238 1324 1221 664 678 1532 1541 1274 1285 1689 1485 1189 1694 2083 2124 2280 2960 2825 2777 3015 2934 2802 2668 2812 2794 2636 2522 2537 2373 2184 2171 1983 1896 1621 1486 1227 865 826 424 293 468 303 169 50 50 6 0 0 0 0 0 0
0 0 0 0 0 0 0 0 0 0 0 0 0 0 0 0 0 0 0 0 0 0 0 0 0 0 0 3 0 39 17 33 402 1448 1449 1543 1220 901 939 782 1384 1896 1752 1633 1945 1433 1520 1938 2618 2650 2942 2826 2935 3080 2992 2873 2704 2710 2866 2844 2716 2536 2424 2287 2038 1859 1696 1703 1713 1297 904 836 741 451 506 157 122 96 0 0 0 0 0 0 0 0
0 0 0 0 0 0 0 0 0 0 0 0 0 0 0 0 0 0 0 0 0 0 0 0 0 0 0 0 0 88 10 55 26 371 1405 1685 1422 1410 1281 1059 803 1461 1900 1955 2651 1958 1691 2451 2925 3014 3022 3025 3011 3143 3100 2983 2818 2739 2711 2815 2766 2534 2420 2253 2074 1934 1757 1470 1528 1495 1136 907 962 742 542 240 240 185 26 0 0 0 0 0 0 0
0 0 0 0 0 0 0 0 0 0 0 0 0 0 0 0 0 0 0 0 0 0 0 0 0 0 0 0 0 11 0 0 0 357 2020 2097 1645 1636 1396 1154 996 1227 2500 2337 2250 2417 2774 2809 2861 2969 3030 3081 3151 3030 3113 2903 2844 2733 2682 2734 2625 2536 2462 2187 2050 1972 1575 1545 1337 1355 1202 924 760 492 417 286 192 212 58 1 0 0 0 0 0 0
0 0 0 0 0 0 0 0 0 0 0 0 0 0 0 0 0 0 0 0 0 0 0 0 0 0 0 13 7 6 0 0 0 684 902 1428 1778 1591 1528 1272 1324 1478 2204 2322 2462 3103 2755 3067 3297 3229 3260 3266 3397 3211 3105 2902 2730 2631 2757 2721 2607 2433 2369 2272 2116 2053 1657 1513 1431 1203 1061 937 747 451 221 169 54 34 17 0 0 0 0 0 0 0
0 0 0 0 0 0 0 0 0 0 0 0 0 0 0 0 0 0 0 0 0 0 0 0 0 5 2 0 0 0 0 0 163 637 26 630 2081 1997 1780 1625 1762 2209 1847 2625 2516 2836 3342 3433 3227 3019 3249 3270 3249 3187 3033 2949 2668 2474 2753 2674 2465 2395 2412 2188 2057 1816 1718 1536 1378 1381 994 981 829 696 407 197 178 14 11 0 0 0 0 0 0 0
0 0 0 0 0 0 0 0 0 0 0 0 0 0 0 0 0 0 0 0 0 0 0 1 8 6 0 0 6 1 57 78 96 328 358 225 432 472 1968 2030 1707 1690 2615 3141 2755 2738 3514 3541 3468 3263 3403 3488 3378 3124 2986 2901 2591 2576 2648 2566 2469 2315 2334 2161 1948 1860 1655 1483 1347 1332 1000 749 767 600 226 95 55 6 0 0 0 0 0 0 0 0
0 0 0 0 0 0 0 0 0 0 0 0 0 0 0 0 0 0 0 0 0 0 0 1 0 1 0 11 4 37 2 70 44 165 343 333 462 571 1685 1809 1786 2207 3340 3539 3281 2780 3422 3612 3507 3486 3542 3608 3481 3194 2988 2858 2685 2703 2515 2356 2443 2281 2256 2092 1939 1714 1309 1390 1284 1226 1036 895 322 225 178 108 274 83 0 0 0 0 0 0 0 0
0 0 0 0 0 0 0 0 0 0 0 0 0 0 0 0 0 0 0 0 0 0 0 0 0 2 9 13 14 0 0 39 154 333 1076 1071 934 685 955 1754 1677 2065 2608 3041 3211 3672 3932 3836 3112 3000 3730 3606 3456 3216 2951 2607 2600 2426 2519 2229 2327 2151 2083 1889 1786 1662 1456 1299 1334 1078 639 533 437 516 400 611 407 69 0 0 0 0 2 0 0 0
0 0 0 0 0 0 0 0 0 0 0 0 0 0 0 0 0 0 0 0 0 0 0 0 0 0 0 240 92 10 4 9 189 667 1580 2170 1806 1582 1552 1493 1499 1778 3468 3281 3355 3717 3542 3135 2915 2924 3370 3464 3444 3118 2888 2722 2344 2362 2407 2278 2348 2168 1969 1879 1655 1545 1299 1212 953 727 655 458 364 263 113 0 0 0 0 0 0 0 0 0 0 0
0 0 0 0 0 0 0 0 0 0 0 0 0 0 0 0 0 0 0 0 0 0 4 0 0 2 7 23 34 0 3 114 444 1106 1846 2033 2532 2221 1983 1814 3153 2921 3577 3721 3734 3804 3470 3243 2954 3033 2797 3382 3264 3082 2902 2735 2469 2340 2158 2016 2188 1954 1879 1549 1474 1446 1263 1104 958 760 570 433 296 257 102 0 1 0 0 0 0 0 0 0 0 0
0 0 0 0 0 0 0 0 0 0 0 0 0 0 0 0 0 0 0 0 0 0 0 0 4 6 142 50 5 3 304 399 774 1066 1297 2017 3088 3236 3118 3140 3143 3412 3536 3564 3410 3749 3424 3533 3402 3154 2789 3503 3148 3124 2566 2770 2322 2038 1918 2235 1935 1882 1634 1673 1347 1344 1226 1004 857 696 493 359 242 198 118 11 0 0 0 0 0 0 0 0 0 0
0 0 0 0 0 0 0 0 0 0 0 0 0 0 0 0 0 0 0 0 0 0 0 22 7 370 57 376 825 558 652 843 742 954 1333 2334 2992 3234 3409 3373 3069 2919 3361 3667 3999 4055 3920 3547 3744 3317 2822 3248 3205 2992 2568 2323 2162 1958 2030 2267 1852 1944 1747 1526 1424 1267 1130 863 694 586 498 360 509 177 0 0 0 0 0 0 0 0 0 0 0 0
0 0 0 0 0 0 0 0 0 0 0 0 0 0 0 0 0 0 0 0 0 4 9 0 10 616 822 753 1213 1378 1468 1533 1148 1553 2897 3476 3497 3435 3402 3330 3036 3312 3302 3632 4098 3912 3575 3314 3147 3379 3251 3350 3278 3061 2344 2259 2092 2214 2062 1686 1579 1669 1288 1174 1005 909 860 958 670 575 423 345 338 243 19 66 14 0 0 0 0 0 0 0 0 0
0 0 0 0 0 0 0 0 0 0 0 0 0 0 0 0 0 0 0 0 0 0 0 0 700 1315 1389 1199 1276 1331 1596 1856 2026 2510 3331 3579 3530 3399 3349 2983 3111 3030 2767 3286 3687 3644 3482 3490 3229 3347 3512 3331 2919 2699 2390 2235 2031 2207 1745 1631 1470 1293 1067 1011 610 1030 894 557 578 508 478 380 350 16 126 51 2 0 0 0 0 0 0 0 0 0
0 0 0 0 0 0 0 0 0 0 0 0 0 0 0 0 0 0 0 0 0 0 0 0 252 960 1616 1507 1765 1884 1753 2104 2663 2850 3398 3547 3419 3491 3226 2851 2947 2785 2550 2699 2856 3064 3295 3512 3664 3465 3405 3154 2966 2770 2640 2352 2283 1701 1495 1331 1328 1081 710 516 657 511 580 637 606 884 512 327 0 0 76 55 0 0 0 0 0 0 0 0 0 0
0 0 0 0 0 0 0 0 0 0 0 0 0 0 0 0 0 0 0 0 0 7 13 35 680 1077 1750 1614 1804 2096 1766 2070 2535 2650 3599 3444 3268 3268 3083 2982 2849 2591 2726 2456 3043 3404 3801 3702 3560 3305 3060 3017 2959 2851 2397 1925 1696 1455 1400 1137 998 953 589 469 338 401 452 423 337 283 356 202 206 7 75 51 0 0 0 0 0 0 0 0 0 1
0 0 0 0 0 0 0 0 0 0 0 0 0 0 0 0 0 0 0 0 0 0 1 1 496 1179 2082 1695 1687 1706 1836 2253 2496 2651 2911 3222 3228 3057 2849 2917 2764 2754 3061 2843 3174 3450 3507 3452 3158 3125 2966 2684 2569 2405 2070 1870 1526 1359 1185 979 950 710 486 637 568 432 472 461 323 265 269 98 0 122 118 67 30 0 0 0 0 0 0 0 2 0
0 0 0 0 0 0 0 2 9 0 0 0 0 0 0 0 0 0 0 0 4 0 0 3 1088 1580 1542 1685 1644 1824 2338 2552 2200 2700 3109 2980 3164 2691 2511 2752 2864 2810 3404 3022 3378 3477 3195 3126 3044 2608 2526 2478 2303 2106 1885 1606 1347 1166 1138 906 619 587 550 492 386 352 368 155 38 254 243 76 0 60 40 0 14 10 0 0 0 0 0 2 0 0
0 0 0 0 0 0 2 2 0 0 2 0 0 0 0 0 0 0 0 4 3 18 20 388 956 1265 1039 1173 1640 1387 1958 1998 2682 2690 2975 2874 2644 2894 2579 2413 2527 2748 3242 3335 2892 2850 2886 2698 2539 2441 2338 2228 2075 1907 1720 1566 1223 841 832 776 603 237 142 319 274 236 248 36 0 214 55 0 0 41 11 0 0 0 0 0 0 0 2 2 0 1
0 0 0 0 0 0 0 4 0 0 1 2 4 2 0 0 0 0 0 2 127 7 27 430 993 618 757 1156 1396 1567 2103 2346 2598 2928 2710 3011 2839 2668 2729 2464 2589 3004 3413 3205 2720 2527 2591 2444 2189 2113 2127 2079 1971 1768 1692 1555 1220 905 752 510 340 367 356 270 288 227 173 0 0 0 0 0 0 0 0 0 0 0 0 0 0 1 7 3 0 5
0 0 0 0 0 0 0 0 0 0 0 0 2 4 7 0 0 0 0 0 0 0 106 1342 977 732 675 908 1112 1674 2049 2304 2087 2523 2980 2835 2773 2671 2524 2509 2552 3004 3043 2800 2558 2432 2355 2155 1910 1814 1806 1798 1837 1824 1656 1458 1106 598 324 322 303 239 256 224 224 174 190 0 0 0 0 0 0 0 0 5 1 0 3 2 0 22 4 1 0 1
0 0 0 0 0 0 0 0 2 0 0 0 0 0 0 0 3 6 4 0 2 40 924 943 1746 1276 1106 1335 1767 1736 1680 1656 1713 1824 2512 2881 2874 2718 2579 2732 2878 2895 2906 2886 2445 2191 2109 2024 1838 1695 1628 1633 1662 1691 1665 1510 1056 595 350 2 77 328 218 272 190 210 214 65 0 0 0 0 0 0 0 0 0 0 11 4 1 5 3 7 16 3
0 0 0 0 0 0 0 0 2 0 0 0 5 0 3 1 0 0 1 1 0 35 456 310 1322 1397 1733 2076 2890 2901 2734 2214 2701 2811 2896 3064 2554 2605 2502 2285 2746 2691 2742 2710 2616 2127 1936 1738 1676 1619 1548 1419 1414 1368 1179 1139 906 442 345 338 357 96 224 266 190 239 187 29 0 0 0 0 0 0 3 0 0 0 7 20 0 29 12 10 11 8
0 0 0 0 0 0 0 0 0 0 0 0 0 0 2 1 1 1 4 2 3 52 455 544 833 856 1365 1807 2386 2956 2530 2332 2097 2302 2291 2700 2310 2170 1983 1816 2472 2712 2822 2765 2634 2212 2007 1763 1580 1495 1434 1350 1211 1066 947 894 671 369 410 433 163 164 232 247 208 144 66 0 0 0 0 0 0 1 7 1 4 1 0 10 7 8 20 24 7 24
0 0 0 0 0 0 2 0 0 1 0 0 2 2 0 0 0 0 0 2 129 100 194 111 817 716 1421 1519 2020 1918 2008 2025 2177 2294 2437 1997 1586 1779 1780 1328 1654 2653 2718 2574 2490 2213 1938 1735 1510 1366 1262 1288 1263 980 816 639 556 442 444 359 49 190 269 183 86 104 0 0 0 0 0 4 0 1 2 4 9 1 1 24 10 0 24 23 34 29
0 0 0 0 0 0 7 14 0 2 0 0 2 0 0 0 0 0 6 2 0 17 118 52 353 1413 1131 1547 1444 1737 1325 1138 1183 1938 1792 1741 1424 1546 1488 1663 1742 2376 2741 2295 2478 1964 1808 1656 1491 1282 1165 1079 984 946 950 727 515 458 410 80 210 100 50 65 56 55 0 0 0 0 0 2 1 0 6 5 17 5 2 6 23 5 6 25 55 98
0 0 0 0 0 1 2 0 1 0 0 0 0 5 0 0 0 0 0 0 12 35 261 326 878 1035 1074 904 1082 1430 1228 1177 1572 1427 1663 1602 1978 2061 1776 1678 1782 2335 2792 2291 2174 2024 1784 1568 1347 1108 1111 1120 1011 956 748 671 474 418 411 109 0 0 0 0 0 0 0 0 0 0 1 1 2 4 9 7 16 11 7 8 19 13 24 21 31 40
0 0 0 0 0 0 0 0 1 0 2 0 0 0 0 0 0 0 0 116 11 0 107 178 681 1405 1225 1625 1827 1850 1716 1243 1566 1671 1702 1991 1915 1714 1401 1232 1686 1758 2415 2538 2565 2072 1788 1621 1377 1139 1120 1039 930 929 670 523 409 446 443 208 0 0 0 0 0 0 0 0 0 0 3 1 4 3 10 19 20 20 17 22 42 18 74 33 15 10
0 0 0 0 0 1 0 14 7 9 11 0 0 13 0 39 0 10 60 627 34 16 432 625 1272 1272 1806 2002 2214 1839 1705 1555 1988 2385 1868 1861 1925 1481 1301 878 1397 1614 2738 2681 2418 2097 1860 1560 1374 1198 1115 1022 914 936 640 420 389 445 343 158 0 0 21 0 0 0 0 0 0 2 3 1 4 7 10 21 7 9 23 27 24 43 24 30 14 36
0 0 0 0 7 0 0 1 2 27 2 2 0 0 0 0 0 3 5 3 27 339 142 700 1799 1769 2045 2006 1822 1896 1968 2116 1856 1741 1912 1964 1827 1828 1604 1768 1462 2319 2716 2139 2051 1961 1782 1548 1417 1245 1106 1112 971 849 670 495 520 440 326 7 0 0 0 0 0 0 1 0 0 2 2 2 8 11 6 4 27 1 31 28 45 42 55 32 32 31
0 0 9 0 1 0 0 0 4 29 202 0 0 0 0 0 0 0 0 606 721 555 892 892 1545 1952 1868 1778 1543 1437 1173 1046 1004 1248 1848 1876 1288 1374 2022 1986 1649 2568 2570 2434 2091 1976 1687 1638 1389 1196 1135 1094 960 811 631 584 496 456 362 239 0 81 207 22 10 2 0 0 0 0 2 0 2 0 2 0 9 15 26 40 39 30 52 39 34 30
0 0 0 0 0 0 0 2 10 20 4 11 1 0 0 0 8 1 0 239 717 358 427 632 1276 1390 1320 1177 1179 1451 1339 1289 1222 1424 986 1010 1190 1605 1786 1715 2055 2165 2477 2458 2015 1808 1732 1488 1279 1083 1135 1044 961 765 584 560 497 483 324 228 214 252 202 110 116 64 8 0 1 1 8 0 21 14 13 11 22 10 37 114 35 55 46 42 11 11
0 0 0 0 0 0 0 2 1 116 0 0 0 0 3 0 0 0 150 567 618 533 580 771 1454 1518 1383 1104 968 1259 1469 1559 1392 1412 1109 1237 1496 2155 1985 2091 2339 2181 2378 2062 1830 1701 1540 1200 885 917 983 981 916 832 708 544 478 377 325 256 234 245 140 184 206 164 100 59 6 0 7 9 15 5 16 11 23 19 24 45 36 47 39 39 30 26
0 0 0 0 0 0 0 0 4 465 192 39 24 2 1 1 70 1269 667 1078 830 730 758 805 1486 1104 892 1026 1130 1918 1808 2319 2246 878 686 956 1276 1872 2037 2239 2558 2192 2104 1922 1885 1473 1313 1132 878 699 764 768 839 894 788 544 395 356 323 294 288 213 183 305 264 202 144 102 64 34 0 2 52 4 13 21 25 21 30 37 42 31 30 34 51 52
0 0 0 0 0 0 0 1 0 86 692 120 0 8 172 82 951 1247 598 531 270 908 880 838 875 1874 1434 1604 1884 1946 1868 2151 1447 1464 1481 1729 1812 1732 1674 2142 2259 2283 1982 1813 1640 1437 1181 1382 1193 829 591 492 548 836 874 650 451 389 333 341 292 255 367 395 271 213 152 132 62 32 13 0 2 8 2 13 19 30 30 43 38 30 34 30 32 58
186 0 0 0 0 1 0 0 294 233 263 125 21 502 485 1279 683 548 224 248 113 449 954 577 1201 1234 1167 1225 2106 2179 2166 2080 1956 1881 1949 1707 1786 1454 1432 2183 2245 2337 2087 1896 1639 1251 1074 1110 1283 886 686 494 591 736 877 711 631 420 369 319 275 264 551 384 357 261 133 95 74 47 104 78 22 2 6 7 15 10 25 38 37 35 35 37 49 76
725 0 1316 317 474 993 759 1040 554 745 625 84 4 878 552 301 154 79 51 79 1109 551 500 1706 1713 1284 1250 1400 1933 2054 2000 2056 1675 1906 2079 2280 1524 1468 1511 1908 2020 1962 1882 1700 1449 1153 1073 936 929 948 683 588 531 666 787 660 504 433 360 289 269 397 454 363 268 162 113 62 148 138 162 173 88 4 1 11 13 12 27 26 36 37 37 39 39 56
410 865 967 200 459 606 598 776 263 138 13 31 49 84 66 226 425 294 325 1640 1137 798 361 1485 834 927 1157 1555 1814 1905 2093 2196 1927 1700 1647 1551 1620 1789 1401 1470 1731 1622 1538 1456 1369 1230 1124 903 790 896 666 559 538 706 776 670 570 437 365 309 369 506 509 296 192 116 47 123 162 154 162 180 91 6 7 10 13 25 34 32 42 38 60 41 28 37
4 48 44 56 425 26 571 666 159 46 24 10 3 188 198 164 144 321 546 972 1070 673 678 805 609 813 1441 1713 1516 1073 1844 1583 1609 1402 1056 1597 1754 1762 1676 1640 1392 1309 1408 1332 1331 1198 1183 914 762 626 716 570 600 587 670 777 771 668 560 610 352 253 222 236 202 154 127 144 147 148 153 141 17 9 26 24 22 27 30 33 33 38 43 31 23 22
64 51 52 54 118 46 519 434 322 438 708 812 651 741 269 251 703 576 556 584 800 704 813 753 671 910 967 1108 946 1090 1714 1436 1462 1633 961 1428 1964 1970 1788 1778 1522 1334 1526 1403 1252 1248 1227 1223 968 675 704 870 836 849 660 774 701 649 403 386 451 373 307 279 285 248 226 198 176 140 116 42 1 13 21 30 22 8 12 18 13 12 29 11 8 9
111 581 67 101 86 46 566 632 658 833 922 758 420 422 269 430 446 341 1213 698 588 676 826 589 410 293 679 1084 1227 720 659 762 1659 1001 443 2079 2237 2215 1837 1827 1517 1554 1548 1250 1079 1293 1349 1280 1157 808 588 769 924 830 893 727 581 590 578 570 555 406 392 415 352 283 260 220 155 103 94 53 0 10 9 24 26 16 23 27 4 0 0 0 3 8
62 33 149 81 68 25 236 1031 904 913 815 527 185 229 408 543 1108 998 836 535 855 1126 628 474 435 447 787 629 774 801 1089 1504 1248 997 1479 2062 2080 1924 1915 1950 1589 1621 1386 1283 1110 1209 1174 1246 1292 920 632 766 816 761 770 680 1020 773 611 533 544 464 430 396 375 283 229 142 68 49 22 2 0 4 15 6 15 9 15 16 18 635 412 99 401 68
149 1107 210 38 104 36 684 1201 1335 797 286 403 379 570 784 775 489 613 683 534 1393 1119 456 128 508 737 797 784 894 955 1187 1522 1030 1227 1559 1676 2130 2037 1920 1878 1594 1486 1363 1184 1195 1300 1091 997 957 1008 899 868 806 823 631 636 628 624 595 589 587 536 496 424 378 277 158 104 91 43 16 1 4 19 23 24 29 10 9 7 4 0 0 0 0 0
Wind_Speed
nan nan nan nan nan nan nan nan nan nan nan nan nan nan nan nan nan nan nan nan 22 nan nan nan nan nan nan nan 45 37 35 35 31 30 29 24 20 10 11 22 22 23 20 21 30 34 34 31 27 24 23 23 23 24 26 27 27 27 27 29 30 30 31 26 22 22 22 21 19 17 18 16 16 14 nan nan nan nan nan nan nan nan nan nan nan nan
nan nan nan nan nan nan nan nan nan nan nan nan nan nan nan nan nan nan nan nan nan nan nan nan nan nan nan nan 50 40 38 33 34 31 36 37 31 22 18 20 18 20 20 28 30 33 34 29 29 25 22 24 26 26 28 29 30 30 29 31 30 30 31 27 23 22 22 21 21 19 17 16 15 15 15 nan nan nan nan nan nan nan nan nan nan nan
nan nan nan nan nan nan nan nan nan nan nan nan nan nan nan nan nan nan nan nan nan nan nan nan nan nan nan nan 51 45 33 32 30 28 28 41 41 32 25 23 16 17 19 22 27 32 30 32 29 25 24 24 26 29 29 30 30 31 30 30 30 31 31 29 26 24 23 23 23 22 20 17 15 14 14 nan nan nan nan nan nan nan nan nan nan nan
nan nan nan nan nan nan nan nan nan nan nan nan nan nan nan nan nan nan nan nan nan nan nan nan nan nan nan 23 39 45 40 34 34 32 26 28 38 40 34 30 20 18 20 22 24 28 29 29 27 25 24 24 26 29 29 29 32 30 30 30 31 31 30 29 28 26 26 26 26 23 20 14 17 17 16 nan nan nan nan nan nan nan nan nan nan nan
nan nan nan nan nan nan nan nan nan nan nan nan nan nan nan nan nan nan nan nan nan nan nan nan nan nan 19 nan 24 43 44 39 36 35 27 24 30 40 32 31 27 23 18 22 23 25 26 28 28 26 25 25 29 30 31 31 30 28 31 32 31 31 31 30 31 29 27 27 27 24 22 19 18 17 15 16 nan nan nan nan nan nan nan nan nan nan
nan nan nan nan nan nan nan nan nan nan nan nan nan nan nan nan nan nan nan nan nan nan nan nan nan nan nan nan nan 41 42 39 38 34 29 29 29 35 37 33 30 23 22 23 22 22 26 26 25 25 26 28 30 31 30 30 31 30 31 33 31 30 31 34 34 32 29 28 27 24 21 20 18 16 15 14 18 nan nan nan nan nan nan nan nan nan
nan nan nan nan nan nan nan nan nan nan nan nan nan nan nan nan nan nan nan nan nan nan nan nan nan nan nan nan nan 40 43 45 39 34 29 28 28 30 34 36 31 24 22 24 27 24 25 25 24 25 27 29 30 31 30 30 32 31 31 32 32 32 32 33 34 34 32 30 28 25 24 23 20 17 15 18 18 nan nan nan nan nan nan nan nan nan
nan nan nan nan nan nan nan nan nan nan nan nan nan nan nan nan nan nan nan nan nan nan nan nan nan nan nan nan nan 36 31 31 40 33 32 32 30 32 32 39 36 29 25 21 25 32 28 24 26 28 27 28 30 32 30 29 30 32 31 33 33 32 33 34 35 36 35 32 29 26 23 22 19 17 17 18 19 nan nan nan nan nan nan nan nan nan
nan nan nan nan nan nan nan nan nan nan nan nan nan nan nan nan nan nan nan nan nan nan nan nan nan nan nan nan nan nan nan nan 28 35 39 40 32 29 30 32 33 32 31 28 23 28 30 28 26 26 26 27 30 32 31 30 30 32 33 33 33 33 33 35 38 37 37 32 28 26 23 20 16 20 19 19 20 nan nan nan nan nan nan nan nan nan
nan nan nan nan nan nan nan nan nan nan nan nan nan nan nan nan nan nan nan nan nan nan nan nan nan nan nan nan nan nan nan nan nan 25 38 45 38 29 29 29 27 25 29 31 21 24 28 27 27 24 24 25 28 31 29 29 29 30 32 34 34 34 34 37 39 38 39 34 28 24 22 20 19 19 21 21 22 21 nan nan nan nan nan nan nan nan
nan nan nan nan nan nan nan nan nan nan nan nan nan nan nan nan nan nan nan nan nan nan nan nan nan nan nan nan nan nan nan nan nan 28 43 50 45 34 28 28 26 23 26 27 26 24 25 27 29 26 25 25 27 29 29 30 31 31 33 35 36 36 35 38 39 39 40 35 26 22 22 22 21 23 25 24 24 23 nan nan nan nan nan nan nan nan
nan nan nan nan nan nan nan nan nan nan nan nan nan nan nan nan nan nan nan nan nan nan nan nan nan nan nan nan nan nan nan nan nan 39 37 42 42 35 27 25 24 25 25 28 24 26 29 27 27 27 27 27 29 29 29 30 32 33 34 35 36 38 37 38 39 38 39 34 25 22 23 24 22 23 26 25 nan nan nan nan nan nan nan nan nan nan
nan nan nan nan nan nan nan nan nan nan nan nan nan nan nan nan nan nan nan nan nan nan nan nan nan nan nan nan nan nan nan nan 24 33 nan 33 48 45 33 22 19 22 28 27 25 25 28 30 31 28 29 29 31 30 31 30 32 33 34 36 38 38 37 38 39 38 39 33 25 23 24 24 23 24 25 24 24 nan nan nan nan nan nan nan nan nan
nan nan nan nan nan nan nan nan nan nan nan nan nan nan nan nan nan nan nan nan nan nan nan nan nan nan nan nan nan nan nan nan nan 33 26 29 33 35 28 15 15 21 21 23 24 25 30 31 29 29 29 30 31 33 31 31 33 34 34 37 39 38 38 39 39 39 39 34 25 23 24 25 23 24 24 nan nan nan nan nan nan nan nan nan nan nan
nan nan nan nan nan nan nan nan nan nan nan nan nan nan nan nan nan nan nan nan nan nan nan nan nan nan nan nan nan nan nan nan nan 32 32 31 24 19 19 13 17 19 19 21 23 25 30 32 29 26 29 31 33 34 32 30 33 36 37 39 40 40 40 41 41 39 40 34 28 24 24 24 22 22 23 23 22 nan nan nan nan nan nan nan nan nan
nan nan nan nan nan nan nan nan nan nan nan nan nan nan nan nan nan nan nan nan nan nan nan nan nan nan nan nan nan nan nan nan 39 33 35 27 14 10 4 13 18 19 21 23 26 27 29 31 25 22 30 32 34 35 31 34 35 37 38 40 41 42 41 42 42 41 40 37 31 27 25 27 25 22 21 22 23 nan nan nan nan nan nan nan nan nan
nan nan nan nan nan nan nan nan nan nan nan nan nan nan nan nan nan nan nan nan nan nan nan nan nan nan nan 25 nan nan nan nan 31 29 25 18 10 4 7 8 12 18 24 24 26 28 31 30 31 26 31 33 33 34 35 35 38 38 40 43 43 43 43 44 44 43 41 39 35 32 28 27 27 25 26 nan nan nan nan nan nan nan nan nan nan nan
nan nan nan nan nan nan nan nan nan nan nan nan nan nan nan nan nan nan nan nan nan nan nan nan nan nan nan nan nan nan nan 26 22 21 21 16 15 11 10 11 14 18 22 24 26 30 31 33 34 33 29 33 34 37 39 39 39 40 41 46 46 46 47 45 45 44 43 42 39 34 31 30 29 26 26 nan nan nan nan nan nan nan nan nan nan nan
nan nan nan nan nan nan nan nan nan nan nan nan nan nan nan nan nan nan nan nan nan nan nan nan nan nan 15 nan nan nan 32 17 15 20 19 20 21 14 11 14 18 23 22 24 26 30 30 29 32 30 33 34 36 37 41 40 40 42 42 46 49 48 47 47 45 43 42 41 38 34 32 31 28 24 22 nan nan nan nan nan nan nan nan nan nan nan
nan nan nan nan nan nan nan nan nan nan nan nan nan nan nan nan nan nan nan nan nan nan nan nan nan 20 nan 28 39 40 29 24 21 19 17 20 21 14 13 15 17 21 22 22 24 27 27 31 30 34 34 38 36 37 39 41 41 43 44 47 48 48 48 48 46 45 42 42 41 36 30 27 22 25 nan nan nan nan nan nan nan nan nan nan nan nan
nan nan nan nan nan nan nan nan nan nan nan nan nan nan nan nan nan nan nan nan nan nan nan nan nan 27 28 29 38 39 34 31 26 20 21 20 16 13 16 17 18 20 20 20 24 27 31 32 33 33 34 37 37 35 38 40 40 43 45 47 49 53 53 49 46 44 42 41 40 34 29 23 25 26 nan nan nan nan nan nan nan nan nan nan nan nan
nan nan nan nan nan nan nan nan nan nan nan nan nan nan nan nan nan nan nan nan nan nan nan nan 24 31 31 28 32 32 29 29 27 24 18 20 14 15 17 17 19 22 23 25 27 28 32 33 34 36 35 37 38 36 37 38 40 44 45 46 49 53 50 47 45 42 41 42 38 32 32 26 24 nan 22 nan nan nan nan nan nan nan nan nan nan nan
nan nan nan nan nan nan nan nan nan nan nan nan nan nan nan nan nan nan nan nan nan nan nan nan 26 30 23 28 28 30 32 30 23 20 15 17 15 16 18 19 20 23 25 28 29 30 31 35 37 38 39 40 37 37 38 37 39 43 43 44 46 49 47 45 43 41 41 41 37 24 27 24 nan nan nan nan nan nan nan nan nan nan nan nan nan nan
nan nan nan nan nan nan nan nan nan nan nan nan nan nan nan nan nan nan nan nan nan nan nan nan 29 25 24 29 30 34 30 25 17 12 17 18 19 18 20 21 22 23 25 28 28 31 34 38 41 39 38 37 35 37 37 35 39 43 43 41 46 50 47 44 38 35 38 39 30 20 20 28 24 nan nan nan nan nan nan nan nan nan nan nan nan nan
nan nan nan nan nan nan nan nan nan nan nan nan nan nan nan nan nan nan nan nan nan nan nan nan 30 32 35 37 34 36 30 26 26 20 16 21 21 22 23 24 23 26 27 28 31 35 37 39 40 38 37 36 34 35 38 40 40 40 42 42 47 50 45 38 35 35 33 30 26 23 25 nan nan 20 23 nan nan nan nan nan nan nan nan nan nan nan
nan nan nan nan nan nan nan nan nan nan nan nan nan nan nan nan nan nan nan nan nan nan nan nan 33 37 38 40 37 33 31 29 26 21 19 25 27 27 28 27 25 27 28 29 34 37 39 39 38 36 35 35 34 34 35 40 40 45 46 42 44 50 45 35 32 31 26 23 nan 25 27 nan nan nan nan nan nan nan nan nan nan nan nan nan nan nan
nan nan nan nan nan nan nan nan nan nan nan nan nan nan nan nan nan nan nan nan nan nan nan 28 39 38 44 39 36 28 25 25 24 24 25 29 31 31 30 27 25 27 27 32 35 36 35 36 35 34 31 30 33 36 36 41 46 47 45 42 38 39 41 31 28 23 19 nan nan 25 nan nan nan nan nan nan nan nan nan nan nan nan nan nan nan nan
nan nan nan nan nan nan nan nan nan nan nan nan nan nan nan nan nan nan nan nan 14 nan nan 30 43 46 44 39 35 30 27 27 28 27 28 31 32 30 29 26 25 27 28 30 31 31 30 32 32 31 32 29 30 35 39 44 46 40 40 37 35 35 34 30 27 23 17 nan nan nan nan nan nan nan nan nan nan nan nan nan nan nan nan nan nan nan
nan nan nan nan nan nan nan nan nan nan nan nan nan nan nan nan nan nan nan nan nan nan 21 43 48 45 40 38 33 31 26 25 26 25 27 31 31 29 28 27 25 24 25 25 25 25 25 28 29 31 31 32 33 36 40 46 47 40 37 37 35 32 27 24 24 21 22 nan nan nan nan nan nan nan nan nan nan nan nan nan nan nan nan nan nan nan
nan nan nan nan nan nan nan nan nan nan nan nan nan nan nan nan nan nan nan nan nan nan 39 45 43 40 35 33 30 26 26 26 26 27 27 29 30 28 27 25 26 23 18 21 22 23 25 26 29 30 34 34 37 38 41 45 43 36 37 nan nan 31 24 20 19 19 24 nan nan nan nan nan nan nan nan nan nan nan nan nan nan nan nan nan nan nan
nan nan nan nan nan nan nan nan nan nan nan nan nan nan nan nan nan nan nan nan nan nan 43 41 41 36 31 25 22 25 24 25 24 27 28 31 28 28 26 19 16 16 15 15 22 25 25 27 29 31 33 36 37 39 40 43 42 37 38 36 31 nan 26 20 18 21 25 nan nan nan nan nan nan nan nan nan nan nan nan nan nan nan nan nan nan nan
nan nan nan nan nan nan nan nan nan nan nan nan nan nan nan nan nan nan nan nan nan nan 39 41 32 28 27 24 25 25 25 24 24 26 26 27 29 28 21 11 6 8 15 16 22 25 27 27 29 30 31 34 39 38 36 36 39 38 36 31 25 23 21 17 19 22 nan nan nan nan nan nan nan nan nan nan nan nan nan nan nan nan nan nan nan nan
nan nan nan nan nan nan nan nan nan nan nan nan nan nan nan nan nan nan nan nan 30 36 33 20 17 18 25 25 25 26 23 25 25 21 25 30 26 17 11 1 3 8 13 17 26 27 27 29 30 32 33 33 34 34 34 36 38 35 31 28 nan 21 18 17 nan 20 nan nan nan nan nan nan nan nan nan nan nan nan nan nan nan nan nan nan nan nan
nan nan nan nan nan nan nan nan nan nan nan nan nan nan nan nan nan nan nan nan nan nan 21 nan 13 21 24 22 20 21 22 24 22 22 24 26 25 18 13 12 13 12 16 18 26 29 30 29 29 30 32 33 33 32 33 33 33 29 26 nan 24 nan nan nan nan nan nan nan nan nan nan nan nan nan nan nan nan nan nan nan nan nan nan nan nan nan
nan nan nan nan nan nan nan nan nan nan nan nan nan nan nan nan nan nan nan nan nan nan 31 22 19 21 24 23 23 24 22 22 20 21 24 23 24 23 19 20 16 15 17 20 26 28 30 32 31 32 32 32 33 32 32 30 30 28 26 25 nan nan nan nan nan nan nan nan nan nan nan nan nan nan nan nan nan nan nan nan nan nan nan nan nan nan
nan nan nan nan nan nan nan nan nan nan nan nan nan nan nan nan nan nan nan 19 nan nan 23 20 21 21 24 26 26 25 23 21 23 23 19 18 17 15 11 13 11 13 15 20 23 28 32 32 33 33 32 31 32 31 30 30 29 28 28 25 nan nan nan nan nan nan nan nan nan nan nan nan nan nan nan nan nan nan nan nan nan nan nan nan nan nan
nan nan nan nan nan nan nan nan nan nan nan nan nan nan nan nan nan nan nan 13 nan nan 24 19 20 22 25 25 26 23 21 19 20 18 20 19 15 14 8 12 11 11 16 19 26 28 30 31 31 32 31 30 30 31 30 30 29 27 26 24 nan nan nan nan nan nan nan nan nan nan nan nan nan nan nan nan nan nan nan nan nan nan nan nan nan nan
nan nan nan nan nan nan nan nan nan nan nan nan nan nan nan nan nan nan nan nan nan 25 15 16 20 23 25 26 26 26 24 21 17 19 23 24 19 18 10 13 14 13 17 17 27 30 29 29 29 30 30 31 30 29 28 29 27 25 24 nan nan nan nan nan nan nan nan nan nan nan nan nan nan nan nan nan nan nan nan nan nan nan nan nan nan nan
nan nan nan nan nan nan nan nan nan nan 23 nan nan nan nan nan nan nan nan 20 12 21 27 24 21 24 27 26 27 25 23 19 18 18 18 23 22 23 18 21 17 13 16 23 29 29 30 29 28 28 29 30 29 26 27 28 28 25 23 21 nan nan 20 nan nan nan nan nan nan nan nan nan nan nan nan nan nan nan nan nan nan nan nan nan nan nan
nan nan nan nan nan nan nan nan nan nan nan nan nan nan nan nan nan nan nan 15 11 15 18 24 24 26 27 27 26 25 21 18 20 22 20 19 23 26 25 20 13 15 19 25 28 29 29 29 27 27 28 28 28 27 26 26 25 25 23 22 22 21 21 20 20 nan nan nan nan nan nan nan nan nan nan nan nan nan nan 17 nan nan nan nan nan nan
nan nan nan nan nan nan nan nan nan 22 nan nan nan nan nan nan nan nan 13 15 12 13 19 21 24 25 25 27 25 24 21 18 20 22 25 22 21 26 24 25 23 20 21 26 28 27 26 25 25 25 27 25 27 25 25 24 23 23 22 21 21 22 20 20 20 20 20 nan nan nan nan nan nan nan nan nan nan nan nan nan nan nan nan nan nan nan
nan nan nan nan nan nan nan nan nan 24 26 nan nan nan nan nan nan 15 15 17 17 14 16 20 26 24 22 23 22 26 23 20 16 23 29 23 19 21 22 24 22 22 23 25 26 24 21 22 24 25 25 25 25 25 23 23 22 22 21 20 21 20 19 20 20 20 20 19 nan nan nan nan nan nan nan nan nan nan nan nan nan nan nan nan nan nan
nan nan nan nan nan nan nan nan nan nan 31 30 nan nan 27 nan 23 15 15 15 18 21 16 19 19 23 21 23 24 26 28 25 22 19 23 24 17 20 23 22 23 25 25 24 22 20 19 19 22 24 24 23 24 23 22 22 22 21 21 21 20 19 19 20 20 20 19 18 nan nan nan nan nan nan nan nan nan nan nan nan nan nan nan nan nan nan
24 nan nan nan nan nan nan nan 30 34 29 25 nan 27 23 24 22 20 12 12 16 20 24 19 21 20 19 24 25 24 24 24 21 24 29 24 17 14 20 22 22 24 23 21 20 19 18 18 18 21 22 21 22 22 22 22 21 20 21 22 19 18 19 20 19 19 20 nan nan nan 19 nan nan nan nan nan nan nan nan nan nan nan nan nan nan nan
28 nan 30 30 36 31 31 32 28 27 22 nan nan 28 24 27 27 nan nan nan 25 23 28 30 30 23 18 22 29 27 21 17 18 19 22 22 31 27 26 24 23 20 18 18 18 18 19 18 18 18 20 20 22 20 19 20 21 22 23 20 19 17 18 19 19 19 19 nan 19 19 17 21 nan nan nan nan nan nan nan nan nan nan nan nan nan nan
25 30 27 28 33 34 32 33 33 25 nan nan nan nan nan 26 27 20 22 27 18 23 24 34 28 25 26 26 28 30 28 22 23 24 25 24 23 22 25 23 22 18 16 16 16 16 17 18 16 16 19 20 20 18 18 19 21 22 18 17 15 16 17 16 17 18 nan 19 17 18 16 17 nan nan nan nan nan nan nan nan nan nan nan nan nan nan
nan nan nan nan 32 nan 33 26 23 nan nan nan nan 23 29 23 30 28 23 14 16 19 24 27 30 29 29 29 32 29 34 27 20 20 23 22 24 23 23 21 19 19 16 15 15 14 15 16 15 14 15 19 18 18 18 18 18 16 14 14 15 16 16 15 15 15 16 16 17 16 15 16 nan nan nan nan nan nan nan nan nan nan nan nan nan nan
nan nan nan nan 27 nan 27 28 34 31 32 24 27 26 25 26 39 30 21 16 13 16 24 29 28 35 31 33 34 34 34 29 26 24 24 23 22 22 19 17 15 15 15 16 15 13 13 13 14 16 14 13 14 14 15 13 13 15 16 16 17 17 17 17 17 18 17 19 17 16 17 nan nan nan nan nan nan nan nan nan nan nan nan nan nan nan
31 22 nan 27 nan nan 32 41 35 27 21 21 28 28 23 28 29 25 24 21 18 21 22 23 22 26 29 33 31 28 26 26 28 25 23 27 23 21 18 16 14 14 16 14 13 12 10 12 14 15 13 11 11 11 9 10 11 13 17 17 17 16 17 18 19 17 19 17 16 16 nan nan nan nan nan nan nan nan nan nan nan nan nan nan nan nan
nan nan 21 nan nan nan 22 32 33 26 24 21 19 18 29 33 27 23 15 10 19 22 22 24 26 23 33 29 31 27 28 25 24 22 23 24 21 20 17 15 15 16 16 13 8 10 9 11 14 14 13 11 9 7 6 8 10 12 15 16 17 18 18 17 17 18 17 15 nan nan nan nan nan nan nan nan nan nan nan nan nan 12 11 nan 9 nan
24 26 25 nan 19 nan 33 36 30 25 23 24 21 28 36 27 25 19 19 13 24 23 23 20 26 27 27 26 25 28 24 22 25 26 26 20 19 18 16 16 16 14 13 11 9 9 9 11 13 12 12 10 8 7 7 8 13 14 16 16 15 16 17 17 16 15 15 15 nan nan nan nan nan nan nan nan nan nan nan nan nan nan nan nan nan nan
Wind_Direction
nan nan nan nan nan nan nan nan nan nan nan nan nan nan nan nan nan nan nan nan 352 nan nan nan nan nan nan nan 322 327 338 335 327 328 311 316 311 314 360 357 16 22 27 39 37 32 34 10 14 11 4 359 358 360 360 3 4 4 0 359 359 360 1 3 2 4 1 356 350 344 341 331 324 314 nan nan nan nan nan nan nan nan nan nan nan nan
nan nan nan nan nan nan nan nan nan nan nan nan nan nan nan nan nan nan nan nan nan nan nan nan nan nan nan nan 319 327 329 335 342 336 321 323 319 332 20 13 5 8 6 24 38 41 32 22 5 9 3 354 355 359 1 4 3 0 2 359 1 2 3 5 2 1 360 357 351 343 337 329 323 321 323 nan nan nan nan nan nan nan nan nan nan nan
nan nan nan nan nan nan nan nan nan nan nan nan nan nan nan nan nan nan nan nan nan nan nan nan nan nan nan nan 324 322 330 343 348 336 326 326 326 335 355 355 8 5 360 25 31 35 34 26 8 6 0 356 357 359 3 4 1 360 360 3 1 3 3 2 360 357 352 352 346 343 330 324 313 295 294 nan nan nan nan nan nan nan nan nan nan nan
nan nan nan nan nan nan nan nan nan nan nan nan nan nan nan nan nan nan nan nan nan nan nan nan nan nan nan 325 325 317 327 340 341 335 336 330 328 326 336 352 355 0 356 12 27 28 34 31 19 9 359 357 358 1 2 3 4 360 359 2 1 3 2 1 359 358 349 345 342 337 327 320 307 311 308 nan nan nan nan nan nan nan nan nan nan nan
nan nan nan nan nan nan nan nan nan nan nan nan nan nan nan nan nan nan nan nan nan nan nan nan nan nan 290 nan 297 309 320 333 338 335 331 324 323 320 328 340 352 357 0 359 16 26 34 29 24 13 2 358 4 4 2 1 2 2 358 359 360 1 360 359 358 354 345 341 339 335 318 314 304 302 314 323 nan nan nan nan nan nan nan nan nan nan
nan nan nan nan nan nan nan nan nan nan nan nan nan nan nan nan nan nan nan nan nan nan nan nan nan nan nan nan nan 310 317 330 334 339 334 317 317 318 324 333 337 347 355 351 1 20 24 30 19 9 4 2 4 4 0 356 358 358 358 356 357 360 357 358 355 349 343 341 338 336 330 328 318 308 321 335 318 nan nan nan nan nan nan nan nan nan
nan nan nan nan nan nan nan nan nan nan nan nan nan nan nan nan nan nan nan nan nan nan nan nan nan nan nan nan nan 306 319 328 331 339 330 316 308 314 320 327 332 338 341 351 352 5 7 22 14 11 4 2 2 360 357 352 355 354 353 355 353 355 354 353 350 346 345 339 339 338 335 337 330 327 302 296 302 nan nan nan nan nan nan nan nan nan
nan nan nan nan nan nan nan nan nan nan nan nan nan nan nan nan nan nan nan nan nan nan nan nan nan nan nan nan nan 313 320 320 324 331 327 322 323 322 329 328 328 331 332 342 357 357 357 359 9 9 4 1 360 355 353 349 352 351 350 351 350 350 351 348 345 346 347 345 341 340 341 338 342 322 308 300 303 nan nan nan nan nan nan nan nan nan
nan nan nan nan nan nan nan nan nan nan nan nan nan nan nan nan nan nan nan nan nan nan nan nan nan nan nan nan nan nan nan nan 319 337 328 325 332 328 335 337 323 324 328 339 353 0 347 352 359 360 359 358 353 351 351 349 349 349 346 347 346 346 344 342 343 346 346 345 336 337 336 338 319 315 313 312 313 nan nan nan nan nan nan nan nan nan
nan nan nan nan nan nan nan nan nan nan nan nan nan nan nan nan nan nan nan nan nan nan nan nan nan nan nan nan nan nan nan nan nan 324 313 318 315 320 333 335 339 331 335 345 350 355 348 344 347 350 352 356 351 349 348 344 342 344 344 342 342 341 341 340 343 343 342 343 338 336 331 332 319 319 313 311 314 313 nan nan nan nan nan nan nan nan
nan nan nan nan nan nan nan nan nan nan nan nan nan nan nan nan nan nan nan nan nan nan nan nan nan nan nan nan nan nan nan nan nan 298 283 294 311 326 336 341 341 334 330 342 352 349 339 339 339 340 350 351 346 349 345 342 342 340 342 340 340 338 337 338 340 341 341 342 339 331 330 326 322 316 307 310 312 320 nan nan nan nan nan nan nan nan
nan nan nan nan nan nan nan nan nan nan nan nan nan nan nan nan nan nan nan nan nan nan nan nan nan nan nan nan nan nan nan nan nan 288 297 314 321 325 337 346 340 333 330 336 342 332 335 332 333 336 341 342 343 348 344 341 337 339 337 338 336 336 335 335 337 338 339 340 333 328 329 324 317 315 311 314 nan nan nan nan nan nan nan nan nan nan
nan nan nan nan nan nan nan nan nan nan nan nan nan nan nan nan nan nan nan nan nan nan nan nan nan nan nan nan nan nan nan nan 263 281 nan 323 327 326 341 356 339 328 335 335 338 334 328 331 333 334 340 340 344 347 343 337 334 335 332 335 333 332 332 330 332 335 335 337 329 327 332 320 319 313 311 314 317 nan nan nan nan nan nan nan nan nan
nan nan nan nan nan nan nan nan nan nan nan nan nan nan nan nan nan nan nan nan nan nan nan nan nan nan nan nan nan nan nan nan nan 256 282 301 302 307 335 2 344 339 338 332 336 329 324 327 324 331 339 336 338 344 340 332 329 330 329 330 328 329 326 326 329 330 332 333 327 325 327 321 319 315 313 nan nan nan nan nan nan nan nan nan nan nan
nan nan nan nan nan nan nan nan nan nan nan nan nan nan nan nan nan nan nan nan nan nan nan nan nan nan nan nan nan nan nan nan nan 257 271 279 297 280 312 340 358 348 340 332 333 332 328 321 319 328 339 336 336 341 335 329 326 326 327 328 326 325 324 324 324 326 329 330 325 321 322 318 319 317 315 316 317 nan nan nan nan nan nan nan nan nan
nan nan nan nan nan nan nan nan nan nan nan nan nan nan nan nan nan nan nan nan nan nan nan nan nan nan nan nan nan nan nan nan 262 271 279 284 272 267 278 10 2 353 339 338 336 326 319 314 304 324 339 337 335 337 330 329 324 324 323 325 323 323 322 322 321 321 323 325 324 315 320 320 322 319 311 303 309 nan nan nan nan nan nan nan nan nan
nan nan nan nan nan nan nan nan nan nan nan nan nan nan nan nan nan nan nan nan nan nan nan nan nan nan nan 252 nan nan nan nan 271 273 285 282 266 313 5 51 9 337 333 337 331 320 315 318 322 335 338 336 333 328 325 326 324 321 320 322 320 318 319 317 318 318 319 324 322 315 315 320 322 324 311 nan nan nan nan nan nan nan nan nan nan nan
nan nan nan nan nan nan nan nan nan nan nan nan nan nan nan nan nan nan nan nan nan nan nan nan nan nan nan nan nan nan nan 269 277 287 299 297 289 303 311 346 329 322 321 323 323 317 321 327 336 338 334 332 327 323 321 321 319 320 320 321 318 316 317 316 315 315 317 319 319 316 317 319 324 325 318 nan nan nan nan nan nan nan nan nan nan nan
nan nan nan nan nan nan nan nan nan nan nan nan nan nan nan nan nan nan nan nan nan nan nan nan nan nan 231 nan nan nan 268 278 291 301 302 285 279 287 312 319 323 320 325 324 324 319 326 332 338 333 334 327 322 322 322 318 318 318 318 315 315 313 312 311 311 312 311 313 314 313 312 320 320 325 308 nan nan nan nan nan nan nan nan nan nan nan
nan nan nan nan nan nan nan nan nan nan nan nan nan nan nan nan nan nan nan nan nan nan nan nan nan 256 nan 231 251 267 280 286 294 286 271 271 283 306 320 322 328 320 314 317 313 319 327 334 335 335 336 328 326 325 321 319 316 317 313 311 311 307 306 306 307 308 308 308 310 310 310 315 312 301 nan nan nan nan nan nan nan nan nan nan nan nan
nan nan nan nan nan nan nan nan nan nan nan nan nan nan nan nan nan nan nan nan nan nan nan nan nan 257 244 247 261 276 282 279 280 276 268 275 297 313 320 328 319 316 314 314 312 317 323 327 328 330 328 324 323 321 317 316 313 311 310 310 306 300 302 303 304 305 304 301 306 308 301 300 293 300 nan nan nan nan nan nan nan nan nan nan nan nan
nan nan nan nan nan nan nan nan nan nan nan nan nan nan nan nan nan nan nan nan nan nan nan nan 268 265 255 257 264 269 271 273 270 268 268 290 312 319 323 324 319 313 316 308 308 315 320 322 323 319 317 317 318 313 312 312 309 307 306 302 297 298 296 299 298 298 297 295 297 302 296 296 291 nan 308 nan nan nan nan nan nan nan nan nan nan nan
nan nan nan nan nan nan nan nan nan nan nan nan nan nan nan nan nan nan nan nan nan nan nan nan 279 264 265 264 263 260 261 266 270 272 289 302 308 316 321 322 317 315 314 312 313 312 312 308 306 308 310 311 312 311 311 307 301 294 291 294 294 291 290 294 295 291 288 285 279 276 291 306 nan nan nan nan nan nan nan nan nan nan nan nan nan nan
nan nan nan nan nan nan nan nan nan nan nan nan nan nan nan nan nan nan nan nan nan nan nan nan 271 281 280 279 274 274 268 267 273 291 306 306 304 313 313 311 312 307 300 303 304 299 296 298 303 306 307 306 306 311 304 297 293 297 297 296 297 295 294 292 295 289 281 282 291 301 313 310 311 nan nan nan nan nan nan nan nan nan nan nan nan nan
nan nan nan nan nan nan nan nan nan nan nan nan nan nan nan nan nan nan nan nan nan nan nan nan 277 286 289 284 285 288 293 298 309 315 315 299 297 299 301 300 301 298 298 304 298 295 296 299 304 305 302 301 298 300 301 299 300 302 302 295 295 291 283 281 282 281 284 292 297 307 312 nan nan 312 308 nan nan nan nan nan nan nan nan nan nan nan
nan nan nan nan nan nan nan nan nan nan nan nan nan nan nan nan nan nan nan nan nan nan nan nan 277 279 281 286 292 297 301 301 301 295 296 296 297 298 293 293 301 297 297 301 294 292 296 300 301 300 298 301 301 299 298 299 298 299 296 297 302 297 281 278 281 272 274 292 nan 298 304 nan nan nan nan nan nan nan nan nan nan nan nan nan nan nan
nan nan nan nan nan nan nan nan nan nan nan nan nan nan nan nan nan nan nan nan nan nan nan 259 276 286 286 285 286 287 290 295 291 287 293 297 296 292 292 294 298 295 297 295 297 293 294 299 298 296 297 299 300 299 297 296 297 297 299 306 308 297 287 285 283 275 279 nan nan 302 nan nan nan nan nan nan nan nan nan nan nan nan nan nan nan nan
nan nan nan nan nan nan nan nan nan nan nan nan nan nan nan nan nan nan nan nan 222 nan nan 275 283 279 280 284 287 291 289 287 286 286 289 291 290 293 295 295 292 293 293 294 297 302 304 303 298 298 299 300 301 298 297 299 300 301 308 312 309 308 301 293 286 286 294 nan nan nan nan nan nan nan nan nan nan nan nan nan nan nan nan nan nan nan
nan nan nan nan nan nan nan nan nan nan nan nan nan nan nan nan nan nan nan nan nan nan 258 271 271 277 279 279 284 288 290 288 285 283 284 289 295 294 293 296 296 296 299 300 304 304 301 303 304 303 304 307 304 300 301 305 308 316 316 308 308 313 304 284 286 293 289 nan nan nan nan nan nan nan nan nan nan nan nan nan nan nan nan nan nan nan
nan nan nan nan nan nan nan nan nan nan nan nan nan nan nan nan nan nan nan nan nan nan 261 264 268 273 275 278 285 289 287 286 286 283 282 285 286 287 287 296 301 304 310 309 309 307 305 306 307 306 310 309 307 308 310 310 310 313 314 nan nan 311 297 278 283 285 286 nan nan nan nan nan nan nan nan nan nan nan nan nan nan nan nan nan nan nan
nan nan nan nan nan nan nan nan nan nan nan nan nan nan nan nan nan nan nan nan nan nan 257 258 269 272 275 279 286 288 288 290 290 285 276 273 268 272 275 274 296 304 307 318 306 308 313 317 311 309 309 310 311 313 315 316 316 318 317 316 316 nan 302 290 279 280 292 nan nan nan nan nan nan nan nan nan nan nan nan nan nan nan nan nan nan nan
nan nan nan nan nan nan nan nan nan nan nan nan nan nan nan nan nan nan nan nan nan nan 262 260 270 278 292 296 292 291 294 291 287 286 288 281 260 251 239 239 286 311 313 317 308 311 317 314 311 306 309 313 317 318 318 317 319 317 319 316 310 307 304 290 278 284 nan nan nan nan nan nan nan nan nan nan nan nan nan nan nan nan nan nan nan nan
nan nan nan nan nan nan nan nan nan nan nan nan nan nan nan nan nan nan nan nan 246 246 254 268 305 307 303 300 297 293 293 286 281 283 290 293 298 283 282 255 129 350 323 316 311 315 319 317 310 310 315 318 319 319 321 321 321 324 325 320 nan 311 298 288 nan 284 nan nan nan nan nan nan nan nan nan nan nan nan nan nan nan nan nan nan nan nan
nan nan nan nan nan nan nan nan nan nan nan nan nan nan nan nan nan nan nan nan nan nan 261 nan 296 304 301 300 289 293 288 286 293 308 315 316 304 308 325 351 3 339 327 318 318 322 318 310 312 317 321 321 318 317 322 323 321 326 330 nan 319 nan nan nan nan nan nan nan nan nan nan nan nan nan nan nan nan nan nan nan nan nan nan nan nan nan
nan nan nan nan nan nan nan nan nan nan nan nan nan nan nan nan nan nan nan nan nan nan 300 296 302 305 298 292 295 298 291 288 293 304 306 307 310 311 336 343 334 332 318 327 322 319 317 317 321 321 321 324 319 319 323 323 323 326 327 326 nan nan nan nan nan nan nan nan nan nan nan nan nan nan nan nan nan nan nan nan nan nan nan nan nan nan
nan nan nan nan nan nan nan nan nan nan nan nan nan nan nan nan nan nan nan 220 nan nan 294 296 303 301 290 290 294 295 298 309 310 299 294 293 285 300 331 321 323 317 327 320 323 319 319 321 324 325 323 324 323 324 326 326 327 326 329 334 nan nan nan nan nan nan nan nan nan nan nan nan nan nan nan nan nan nan nan nan nan nan nan nan nan nan
nan nan nan nan nan nan nan nan nan nan nan nan nan nan nan nan nan nan nan 298 nan nan 279 282 291 284 280 282 279 284 295 299 299 302 303 302 330 338 330 300 312 347 324 316 313 313 316 320 322 324 323 324 328 328 328 328 330 332 335 340 nan nan nan nan nan nan nan nan nan nan nan nan nan nan nan nan nan nan nan nan nan nan nan nan nan nan
nan nan nan nan nan nan nan nan nan nan nan nan nan nan nan nan nan nan nan nan nan 276 278 284 287 279 287 287 291 298 298 303 308 307 312 316 305 300 303 272 270 291 320 316 304 310 312 316 320 320 324 327 331 331 328 330 333 335 339 nan nan nan nan nan nan nan nan nan nan nan nan nan nan nan nan nan nan nan nan nan nan nan nan nan nan nan
nan nan nan nan nan nan nan nan nan nan 268 nan nan nan nan nan nan nan nan 279 272 296 307 308 303 304 306 310 311 312 307 304 301 298 288 292 305 300 287 275 288 330 311 303 305 311 314 315 319 320 325 329 328 330 331 334 335 336 340 340 nan nan 330 nan nan nan nan nan nan nan nan nan nan nan nan nan nan nan nan nan nan nan nan nan nan nan
nan nan nan nan nan nan nan nan nan nan nan nan nan nan nan nan nan nan nan 289 301 295 300 300 311 319 318 312 310 311 317 318 302 294 291 300 295 289 293 294 316 321 313 308 311 310 310 311 315 322 326 330 330 330 333 335 336 338 339 337 334 332 330 327 328 nan nan nan nan nan nan nan nan nan nan nan nan nan nan 316 nan nan nan nan nan nan
nan nan nan nan nan nan nan nan nan 258 nan nan nan nan nan nan nan nan 261 282 302 302 300 301 300 310 310 309 318 313 311 310 303 306 302 299 297 300 321 332 332 324 320 313 309 308 309 315 320 325 330 330 331 331 334 335 337 338 337 334 334 334 331 328 330 326 326 nan nan nan nan nan nan nan nan nan nan nan nan nan nan nan nan nan nan nan
nan nan nan nan nan nan nan nan nan 252 253 nan nan nan nan nan nan 257 277 280 288 292 296 300 309 312 315 316 310 301 309 309 311 309 305 310 318 311 318 313 315 312 309 307 305 312 315 317 321 325 329 328 334 334 338 339 337 338 335 337 337 335 330 328 330 328 326 334 nan nan nan nan nan nan nan nan nan nan nan nan nan nan nan nan nan nan
nan nan nan nan nan nan nan nan nan nan 246 239 nan nan 246 nan 266 255 269 303 286 294 299 308 312 314 313 299 290 293 304 309 309 305 293 294 320 325 323 322 312 310 308 310 315 314 317 318 326 326 327 331 334 337 341 344 339 341 338 341 341 333 331 329 331 330 332 334 nan nan nan nan nan nan nan nan nan nan nan nan nan nan nan nan nan nan
235 nan nan nan nan nan nan nan 231 235 245 250 nan 260 265 276 281 284 277 292 290 304 312 305 305 308 302 294 296 289 291 299 304 302 303 316 314 306 329 321 319 315 315 318 318 318 317 322 328 324 324 331 334 339 342 346 340 337 341 342 337 339 332 331 333 334 337 nan nan nan 328 nan nan nan nan nan nan nan nan nan nan nan nan nan nan nan
219 nan 217 220 224 222 232 240 249 248 241 nan nan 269 270 275 274 nan nan nan 294 322 315 309 306 308 306 284 289 291 290 297 302 296 296 323 331 342 326 321 319 323 319 321 317 314 316 323 326 321 323 328 333 337 339 339 338 340 342 340 337 346 334 333 334 336 338 nan 333 335 337 325 nan nan nan nan nan nan nan nan nan nan nan nan nan nan
221 235 230 220 227 235 239 241 252 255 nan nan nan nan nan 269 257 265 268 278 312 308 311 309 313 308 303 301 300 309 315 316 314 317 328 333 322 322 318 316 317 316 314 308 309 315 316 318 321 324 322 329 338 335 335 335 335 336 339 337 339 338 331 332 331 335 nan 332 328 329 329 329 nan nan nan nan nan nan nan nan nan nan nan nan nan nan
nan nan nan nan 237 nan 236 226 233 nan nan nan nan 243 246 242 263 263 255 282 295 305 299 300 306 311 307 314 314 311 305 324 323 337 329 323 324 321 316 314 316 314 313 313 309 317 315 314 319 324 331 330 338 336 333 336 331 333 335 332 326 326 328 330 333 333 328 328 329 335 338 340 nan nan nan nan nan nan nan nan nan nan nan nan nan nan
nan nan nan nan 232 nan 244 254 237 227 245 242 244 244 258 262 260 265 279 287 285 286 299 314 320 304 320 320 312 311 315 319 328 333 329 326 323 314 311 308 303 302 301 305 310 323 320 316 323 326 330 325 322 324 331 339 342 342 339 330 337 331 334 339 345 346 343 341 343 344 350 nan nan nan nan nan nan nan nan nan nan nan nan nan nan nan
224 232 nan 242 nan nan 245 257 263 260 252 249 261 267 266 255 270 273 274 290 317 308 303 298 290 309 309 303 303 302 311 319 325 327 331 317 321 310 308 299 290 284 289 298 309 315 320 320 321 324 315 309 303 319 325 341 350 346 344 336 339 336 344 349 356 359 354 353 347 350 nan nan nan nan nan nan nan nan nan nan nan nan nan nan nan nan
nan nan 232 nan nan nan 247 259 267 259 257 249 252 265 269 260 258 268 278 317 302 305 304 300 303 297 298 303 307 312 308 320 320 313 308 314 308 301 289 285 284 288 292 297 308 312 319 319 318 315 308 304 312 316 333 346 336 343 345 346 351 343 350 356 360 0 357 350 nan nan nan nan nan nan nan nan nan nan nan nan nan 2 356 nan 329 nan
237 222 214 nan 224 nan 244 257 252 255 258 266 255 261 267 271 279 293 310 326 308 310 304 304 296 296 296 295 293 298 301 314 317 318 310 301 295 292 300 296 290 287 290 296 301 312 313 309 312 313 306 312 318 322 343 336 343 348 350 354 353 349 349 358 360 356 346 349 nan nan nan nan nan nan nan nan nan nan nan nan nan nan nan nan nan nan